Arctic Village, AK

6:37 PM AKST on January 23, 2017 (GMT -0900)
Arctic Village

Weather History for PARC - March, 2013

Change the Weather History Date:

Thursday, March 7, 2013

  Actual Average Record
Temperature  
Mean Temperature -10 °F -  
Max Temperature 3 °F 5 °F 24 °F (2008)
Min Temperature -22 °F -21 °F -50 °F (1972)
Degree Days  
Heating Degree Days 74    
Moisture  
Dew Point -20 °F    
Average Humidity 48    
Maximum Humidity 100    
Minimum Humidity 20    
Precipitation  
Precipitation 0.00 in - - ()
Sea Level Pressure  
Sea Level Pressure 29.74 in    
Wind  
Wind Speed 2 mph (NE)    
Max Wind Speed 10 mph    
Max Gust Speed -    
Visibility 10 miles    
Events      
Averages and records for this station are not official NWS values.
T = Trace of Precipitation, MM = Missing Value Source: NWS Daily Summary

Daily Weather History Graph

Daily Weather History Graph

Search for Another Location

Airport or City:

Trip Planner

Search our weather history database for the weather conditions in past years. The results will help you decide how hot, cold, wet, or windy it might be!

Date:

Astronomy

Mar. 07, 2013 Rise Set
Actual Time 7:34 AM AKST 6:13 PM AKST
Civil Twilight 6:39 AM AKST 7:09 PM AKST
Nautical Twilight 5:33 AM AKST 8:15 PM AKST
Astronomical Twilight 4:22 AM AKST 9:27 PM AKST
Moon 6:35 AM AKST (3/7) 12:23 PM AKST (3/7)
Length of Visible Light 12h 30m
Length of Day
10h 38m
Waning Crescent, 19% of the Moon is Illuminated
Mar 7
Waning Crescent
Mar 11
New
Mar 19
First Quarter
Mar 27
Full
Apr 2
Last Quarter

Hourly Weather History & Observations

Time (AKST) Temp. Windchill Dew Point Humidity Pressure Visibility Wind Dir Wind Speed Gust Speed Precip Events Conditions
12:16 AM -11.2 °F - -23.8 °F 54% 29.79 in 8.0 mi Calm Calm - N/A   Clear
12:36 AM -14.8 °F - -23.8 °F 64% 29.78 in 9.0 mi Calm Calm - N/A   Clear
12:56 AM -16.6 °F - -27.4 °F 58% 29.79 in 10.0 mi Calm Calm - N/A   Clear
1:16 AM -13.0 °F - - N/A% 29.79 in 10.0 mi Calm Calm - N/A   Clear
1:36 AM -16.6 °F - - N/A% 29.79 in 10.0 mi Calm Calm - N/A   Clear
1:56 AM -16.6 °F - - N/A% 29.79 in 10.0 mi Calm Calm - N/A   Clear
2:16 AM -16.6 °F - - N/A% 29.79 in 10.0 mi Calm Calm - N/A   Clear
2:36 AM -14.8 °F - - N/A% 29.79 in 8.0 mi Calm Calm - N/A   Clear
2:56 AM -14.8 °F -24.8 °F - N/A% 29.79 in 9.0 mi NNE 3.5 mph - N/A   Clear
3:16 AM -16.6 °F - - N/A% 29.80 in 7.0 mi Calm Calm - N/A   Clear
3:36 AM -18.4 °F - - N/A% 29.79 in 10.0 mi Calm Calm - N/A   Clear
3:56 AM -20.2 °F - - N/A% 29.79 in 10.0 mi Calm Calm - N/A   Clear
4:16 AM -18.4 °F - -27.4 °F 63% 29.79 in 10.0 mi Calm Calm - N/A   Clear
4:36 AM -18.4 °F - - N/A% 29.78 in 7.0 mi Calm Calm - N/A   Clear
4:56 AM -20.2 °F - - N/A% 29.78 in 7.0 mi Calm Calm - N/A   Clear
5:16 AM -20.2 °F - -29.2 °F 63% 29.77 in 10.0 mi Calm Calm - N/A   Clear
5:36 AM -20.2 °F - -27.4 °F 69% 29.77 in 10.0 mi Calm Calm - N/A   Clear
5:56 AM -20.2 °F - - N/A% 29.77 in 10.0 mi Calm Calm - N/A   Clear
6:16 AM -18.4 °F -28.9 °F - N/A% 29.77 in 10.0 mi NE 3.5 mph - N/A   Clear
6:36 AM -20.2 °F - - N/A% 29.77 in 10.0 mi Calm Calm - N/A   Clear
6:56 AM -20.2 °F - - N/A% 29.77 in 10.0 mi Calm Calm - N/A   Clear
7:16 AM -22.0 °F - - N/A% 29.76 in 9.0 mi Calm Calm - N/A   Clear
7:36 AM -18.4 °F - - N/A% 29.76 in 10.0 mi Calm Calm - N/A   Clear
7:56 AM -22.0 °F - - N/A% 29.77 in 10.0 mi Calm Calm - N/A   Clear
8:16 AM -18.4 °F -28.9 °F - N/A% 29.77 in 9.0 mi NE 3.5 mph - N/A   Clear
8:36 AM -18.4 °F -28.9 °F - N/A% 29.77 in 10.0 mi East 3.5 mph - N/A   Clear
8:56 AM -16.6 °F - - N/A% 29.77 in 9.0 mi Calm Calm - N/A   Clear
9:16 AM -14.8 °F - -25.6 °F 58% 29.77 in 9.0 mi Calm Calm - N/A   Clear
9:36 AM -14.8 °F - -27.4 °F 53% 29.76 in 10.0 mi Calm Calm - N/A   Clear
9:56 AM -11.2 °F -20.6 °F -11.2 °F 100% 29.76 in 10.0 mi ENE 3.5 mph - N/A   Clear
10:16 AM -11.2 °F -23.0 °F -25.6 °F 49% 29.75 in 10.0 mi NE 4.6 mph - N/A   Clear
10:36 AM -9.4 °F -24.3 °F - N/A% 29.75 in 10.0 mi NNE 6.9 mph - N/A   Clear
10:56 AM -7.6 °F -18.8 °F - N/A% 29.76 in 10.0 mi NNE 4.6 mph - N/A   Clear
11:16 AM -7.6 °F -18.8 °F - N/A% 29.76 in 10.0 mi NE 4.6 mph - N/A   Clear
11:36 AM -5.8 °F -14.5 °F -27.4 °F 35% 29.76 in 10.0 mi ENE 3.5 mph - N/A   Clear
11:56 AM -5.8 °F -16.7 °F -23.8 °F 42% 29.76 in 10.0 mi NNE 4.6 mph - N/A   Clear
12:16 PM -5.8 °F -16.7 °F -16.6 °F 60% 29.75 in 10.0 mi NNE 4.6 mph - N/A   Clear
12:36 PM -5.8 °F -18.4 °F -18.4 °F 55% 29.75 in 10.0 mi NNE 5.8 mph - N/A   Clear
12:56 PM -4.0 °F -16.3 °F - N/A% 29.76 in 10.0 mi NE 5.8 mph - N/A   Clear
1:16 PM -2.2 °F -10.4 °F -29.2 °F 27% 29.76 in 10.0 mi NNE 3.5 mph - N/A   Clear
1:36 PM -2.2 °F - - N/A% 29.75 in 10.0 mi Calm Calm - N/A   Clear
1:56 PM -0.4 °F -10.4 °F -25.6 °F 30% 29.74 in 10.0 mi NNE 4.6 mph - N/A   Clear
2:16 PM 1.4 °F -6.2 °F -20.2 °F 36% 29.74 in 10.0 mi North 3.5 mph - N/A   Clear
2:36 PM 3.2 °F -7.8 °F -11.2 °F 51% 29.73 in 10.0 mi NNE 5.8 mph - N/A   Clear
2:56 PM 3.2 °F -6.2 °F -9.4 °F 56% 29.73 in 10.0 mi NNE 4.6 mph - N/A   Clear
3:16 PM 3.2 °F -7.8 °F -16.6 °F 39% 29.73 in 10.0 mi North 5.8 mph - N/A   Clear
3:36 PM 1.4 °F -8.3 °F -22.0 °F 33% 29.72 in 10.0 mi North 4.6 mph - N/A   Clear
3:56 PM 3.2 °F -6.2 °F -20.2 °F 33% 29.73 in 10.0 mi NNW 4.6 mph - N/A   Clear
4:16 PM 3.2 °F -6.2 °F -16.6 °F 39% 29.73 in 10.0 mi North 4.6 mph - N/A   Clear
4:36 PM 3.2 °F -7.8 °F -18.4 °F 36% 29.72 in 10.0 mi NNE 5.8 mph - N/A   Clear
4:56 PM 3.2 °F -9.1 °F -18.4 °F 36% 29.72 in 10.0 mi NNE 6.9 mph - N/A   Clear
5:16 PM 1.4 °F -12.5 °F -18.4 °F 39% 29.72 in 10.0 mi NNE 8.1 mph - N/A   Clear
5:36 PM 1.4 °F -13.5 °F -14.8 °F 47% 29.71 in 10.0 mi NE 9.2 mph - N/A   Clear
5:56 PM 1.4 °F -13.5 °F -13.0 °F 51% 29.70 in 10.0 mi NE 9.2 mph - N/A   Clear
6:16 PM -0.4 °F -13.4 °F -5.8 °F 78% 29.71 in 10.0 mi NE 6.9 mph - N/A   Clear
6:36 PM -0.4 °F -12.0 °F -0.4 °F 100% 29.70 in 10.0 mi ENE 5.8 mph - N/A   Clear
6:56 PM -0.4 °F -12.0 °F - N/A% 29.69 in 10.0 mi NE 5.8 mph - N/A   Clear
7:16 PM -2.2 °F -14.2 °F -29.2 °F 27% 29.70 in 10.0 mi ENE 5.8 mph - N/A   Clear
7:36 PM -0.4 °F -8.3 °F -27.4 °F 27% 29.70 in 10.0 mi East 3.5 mph - N/A   Clear
7:56 PM -2.2 °F -10.4 °F -23.8 °F 35% 29.70 in 10.0 mi ENE 3.5 mph - N/A   Clear
8:16 PM -2.2 °F -10.4 °F -18.4 °F 46% 29.71 in 10.0 mi NNE 3.5 mph - N/A   Clear
8:36 PM -2.2 °F -14.2 °F -16.6 °F 50% 29.70 in 10.0 mi NE 5.8 mph - N/A   Clear
8:56 PM -2.2 °F -10.4 °F -9.4 °F 71% 29.69 in 10.0 mi ENE 3.5 mph - N/A   Clear
9:16 PM -2.2 °F -12.5 °F -34.6 °F 20% 29.70 in 10.0 mi ENE 4.6 mph - N/A   Clear
9:36 PM -4.0 °F -12.4 °F - N/A% 29.70 in 10.0 mi NE 3.5 mph - N/A   Clear
9:56 PM -4.0 °F -17.8 °F -27.4 °F 32% 29.70 in 10.0 mi East 6.9 mph - N/A   Clear
10:16 PM -0.4 °F -16.7 °F -27.4 °F 27% 29.68 in 10.0 mi ENE 10.4 mph - N/A   Clear
10:36 PM -2.2 °F -14.2 °F -23.8 °F 35% 29.69 in 10.0 mi East 5.8 mph - N/A   Clear
10:56 PM -0.4 °F -14.7 °F -9.4 °F 66% 29.68 in 10.0 mi ENE 8.1 mph - N/A   Clear
11:16 PM 1.4 °F -13.5 °F -7.6 °F 66% 29.68 in 10.0 mi East 9.2 mph - N/A   Clear
11:36 PM 1.4 °F -14.5 °F -27.4 °F 25% 29.68 in 10.0 mi East 10.4 mph - N/A   Clear
11:56 PM 3.2 °F -6.2 °F -18.4 °F 36% 29.69 in 10.0 mi East 4.6 mph - N/A   Clear